SCP
0 0 0 0 0 0 0 0 0 0 0 0 0 0 0 0 0 0 0 0 0 0 0 0 0 0 0 0 0 0 0 0 0 0 0 0 0 0 0 0 0 0 0
0 0 0 0 0 0 0 0 0 0 0 0 0 0 0 0 0 0 0 0 0 0 0 0 0 0 0 0 0 0 0 0 0 0 0 0 0 0 0 0 0 0 0
0 0 0 0 0 0 0 0 0 0 0 0 0 0 0 0 0 0 0 0 0 0 0 0 0 0 0 0 0 0 0 0 0 0 0 0 0 0 0 0 0 0 0
0 0 0 0 0 0 0 0 0 0 0 0 0 0 0 0 0 0 0 0 0 0 0 0 0 0 0 0 0 0 0 0 0 0 0 0 0 0 0 0 0 0 0
0 0 0 0 0 0 0 0 0 0 0 0 0 0 0 0 0 0 0 0 0 0 0 0 0 0 0 0 0 0 0 0 0 0 0 0 0 0 0 0 0 0 0
0 0 0 0 0 0 0 0 0 0 0 0 0 0 0 0 0 0 0 0 0 0 0 0 0 0 0 0 0 0 0 0 0 0 0 0 0 0 0 0 0 0 0
0 0 0 0 0 0 0 0 0 0 0 0 0 0 0 0 0 0 0 0 0 0 0 0 0 0 0 0 0 0 0 0 0 0 0 0 0 0 0 0 0 0 0
0 0 0 0 0 0 0 0 0 0 0 0 0 0 0 0 0 0 0 0 0 0 0 0 0 0 0 0 0 0 0 0 0 0 0 0 0 0 0 0 0 0 0
0 0 0 0 0 0 0 0 0 0 0 0 0 0 0 0 0 0 0 0 0 0 0 0 0 0 0 0 0 0 0 0 0 0 0 0 0 0 0 0 0 0 0
0 0 0 0 0 0 0 0 0 0 0 0 0 0 0 0 0 0 0 0 0 0 0 0 0 0 0 0 0 0 0 0 0 0 0 0 0 0 0 0 0 0 0
0 0 0 0 0 0 0 0 0 0 0 0 0 0 0 0 0 0 0 0 0 0 0 0 0 0 0 0 0 0 0 0 0 0 0 0 0 0 0 0 0 0 0
0 0 0 0 0 0 0 0 0 0 0 0 0 0 0 0 0 0 0 0 0 0 0 0 0 0 0 0 0 0 0 0 0 0 0 0 0 0 0 0 0 0 0
0 0 0 0 0 0 0 0 0 0 0 0 0 0 0 0 0 0 0 0 0 0 0 0 0 0 0 0 0 0 0 0 0 0 0 0 0 0 0 0 0 0 0
0 0 0 0 0 0 0 0 0 0 0 0 0 0 0 0 0 0 0 0 0 0 0 0 0 0 0 0 0 0 0 0 0 0 0 0 0 0 0 0 0 0 0
0 0 0 0 0 0 0 0 0 0 0 0 0 0 0 0 0 0 0 0 0 0 0 0 0 0 0 0 0 0 0 0 0 0 0 0 0 0 0 0 0 0 0
0 0 0 0 0 0 0 0 0 0 0 0 0 0 0 0 0 0 0 0 0 0 0 0 0 0 0 0 0 0 0 0 0 0 0 0 0 0 0 0 0 0 0
0 0 0 0 0 0 0 0 0 0 0 0 0 0 0 0 0 0 0 0 0 0 0 0 0 0 0 0 0 0 0 0 0 0 0 0 0 0 0 0 0 0 0
0 0 0 0 0 0 0 0 0 0 0 0 0 0 -0 -0 0 0 0 0 0 0 0 0 0 0 0 0 0 0 0 0 0 0 0 0 0 0 0 0 0 0 0
0 0 0 0 0 0 0 0 0 0 0 0 0 -0 -0 -0 0 0 0 0 0 0 0 0 0 0 0 0 0 0 0 0 0 0 0 0 0 0 0 0 0 0 0
0 0 0 0 0 0 0 0 0 0 0 0 -0 -0 -0 0 0 0 0 0 0 0 0 0 0 0 0 0 0 0 0 0 0 0 0 0 0 0 0 0 0 0 0
0 0 0 0 0 0 0 0 0 0 0 0 0 -0 -0 -0 -0 -0 0 0 0 0 0 0 0 0 0 0 0 0 0 0 0 0 0 0 0 0 0 0 0 0 0
0 0 0 0 -0 -0 -0 0 0 0 0 0 0 -0 -0 -0 -0 -0 0 0 0 0 0 0 0 0 0 0 0 0 0 0 0 0 0 0 0 0 0 0 0 0 0
0 0 0 0 0 0 0 0 0 0 0 0 0 -0 -0 -0 0 0 0 0 0 0 0 0 0 0 0 0 0 0 0 0 0 0 0 0 0 0 0 0 0 0 0
0 0 0 0 0 0 0 0 0 0 0 0 0 0 0 0 0 0 0 0 0 0 0 0 0 0 0 0 0 0 0 0 0 0 0 0 0 0 0 0 0 0 0
0 0 0 0 0 0 0 0 0 0 0 0 0 0 0 0 0 0 0 0 0 0 0 0 0 0 0 0 0 0 0 0 0 0 0 0 0 0 0 0 0 0 0
0 0 0 0 0 0 0 0 0 0 0 0 0 0 0 0 0 0 0 0 0 0 0 0 0 0 0 0 0 0 0 0 0 0 0 0 0 0 0 0 0 0 0
Wind_Speed
4 6 6 7 7 6 6 6 6 6 5 4 3 3 2 2 1 1 2 2 2 3 3 2 2 2 3 2 2 2 3 3 3 2 3 3 3 3 4 4 3 3 3
6 7 7 8 8 7 7 6 7 7 6 4 3 3 3 2 1 1 1 2 2 3 3 3 2 2 2 3 3 2 2 3 4 2 2 3 4 4 4 4 5 5 4
8 8 8 7 8 8 9 8 7 7 6 5 4 4 3 3 2 1 1 1 2 2 2 3 2 2 2 2 2 2 2 2 3 2 2 2 0 3 3 3 5 5 4
7 8 9 9 9 9 7 7 7 6 6 6 6 6 4 3 3 2 2 1 1 2 3 3 3 2 2 2 1 2 1 2 1 2 2 1 1 0 2 3 3 5 5
9 10 10 10 9 8 7 6 6 6 5 6 6 5 4 3 2 1 2 1 0 1 3 3 3 3 2 2 1 2 1 1 1 1 1 2 2 1 1 2 4 4 3
9 8 7 6 6 6 7 7 7 6 6 6 6 6 6 5 4 3 3 1 1 1 2 3 3 3 2 2 2 2 2 1 1 1 1 1 1 1 1 1 2 3 3
9 8 8 8 8 9 8 8 8 7 6 7 6 6 7 7 6 5 4 3 2 1 2 3 3 3 3 3 2 2 2 2 2 2 1 1 1 1 1 1 1 2 2
9 10 11 10 10 10 9 9 9 8 8 7 7 6 6 4 4 5 4 4 3 3 3 3 3 3 3 3 3 2 2 2 2 3 2 2 2 2 2 2 2 1 2
10 11 10 10 10 10 10 11 10 8 8 8 7 6 6 6 5 5 4 3 3 3 4 4 4 3 3 3 3 2 3 2 3 3 3 2 2 2 3 3 3 2 2
9 9 9 10 10 10 9 9 10 10 9 8 8 7 7 6 6 5 5 5 4 4 4 4 4 4 4 3 3 3 3 3 3 3 3 3 2 2 3 3 3 4 3
11 10 9 9 9 8 8 9 9 8 8 9 8 7 7 6 6 5 6 5 5 5 5 5 4 4 4 4 3 4 3 4 4 3 4 5 4 3 3 3 3 4 4
9 9 9 8 8 9 9 10 10 10 9 9 8 8 7 7 7 7 7 6 6 6 6 5 5 5 5 4 4 5 4 5 5 5 5 6 4 5 4 3 4 4 5
7 7 7 9 10 11 10 11 11 11 9 9 9 8 7 8 8 8 7 7 7 6 6 5 6 6 5 5 5 5 5 6 6 6 6 6 5 6 4 5 5 4 5
7 8 8 9 10 10 10 11 10 10 9 9 9 9 10 10 9 8 7 7 7 7 7 7 7 7 6 6 6 6 6 6 6 6 7 7 7 7 7 5 6 5 5
6 8 9 9 8 9 9 10 10 9 10 10 10 11 10 8 8 7 8 7 7 8 7 7 7 7 6 6 7 7 7 7 7 7 7 7 9 10 8 6 6 6 5
5 6 7 8 9 10 10 9 10 10 10 11 12 9 8 8 8 8 8 7 8 7 7 8 8 8 7 9 11 9 7 7 7 8 7 7 9 10 11 12 11 9 8
3 3 4 6 8 8 9 10 9 7 8 9 8 8 8 9 9 8 8 8 8 7 8 8 8 9 10 12 12 12 8 8 8 8 8 7 7 8 7 8 10 10 12
2 1 2 3 4 4 5 5 6 7 8 8 7 7 8 8 7 7 8 8 7 7 7 8 9 9 10 13 14 13 10 9 10 10 10 9 9 8 8 7 8 8 9
3 2 1 1 1 1 3 5 5 5 6 7 8 8 8 8 8 9 9 8 6 7 7 7 9 10 11 13 14 12 7 8 11 10 10 11 11 12 11 9 9 9 9
6 6 6 6 6 3 4 5 3 4 5 6 5 5 6 7 8 8 8 6 6 8 8 8 9 10 11 12 14 13 7 8 9 8 9 13 14 14 12 10 9 10 10
9 9 9 9 7 4 5 4 2 1 2 1 2 3 4 6 6 6 5 5 6 6 7 8 8 9 11 12 15 14 9 9 9 8 8 9 14 16 15 13 10 13 10
10 10 11 10 8 7 6 4 2 2 1 1 1 1 2 3 3 4 4 4 5 6 7 7 8 7 8 11 12 15 16 13 10 10 9 9 13 14 14 12 13 14 10
9 8 10 9 8 7 6 5 4 3 3 3 2 2 1 1 1 2 3 3 3 4 5 5 7 7 6 8 14 15 16 17 13 11 13 13 13 12 11 14 14 11 7
9 9 10 9 8 7 7 5 4 4 4 4 3 3 2 2 2 1 1 2 3 4 5 6 7 7 6 6 6 7 8 11 12 11 11 13 12 10 10 9 9 8 8
6 6 7 7 6 6 6 6 5 4 5 4 3 3 2 2 2 2 2 3 4 5 5 6 6 7 8 9 11 8 7 7 7 6 5 5 6 7 8 7 7 7 7
4 5 6 5 4 5 5 6 5 4 4 4 4 3 3 2 2 3 4 5 6 9 10 11 10 8 12 15 16 15 15 14 11 6 7 8 9 9 9 8 7 7 8
Wind_Direction
178 163 151 150 152 158 158 158 148 145 142 135 134 135 145 145 144 167 163 151 141 131 116 102 84 73 71 58 49 62 43 23 0 26 6 355 7 25 26 14 19 15 1
164 166 160 158 165 175 175 165 162 160 164 153 144 141 133 139 145 138 146 171 160 151 140 127 114 100 86 60 44 51 58 25 23 51 58 12 359 358 11 12 28 24 21
176 177 171 170 171 185 185 177 173 166 162 144 120 99 81 69 83 129 188 212 186 171 152 149 139 126 110 96 66 58 78 56 23 35 93 100 10 318 335 3 17 15 25
178 179 175 175 187 195 183 171 170 164 160 152 151 150 155 169 193 185 188 203 193 185 174 165 154 144 130 123 105 92 85 96 48 24 38 74 149 87 336 335 353 2 17
181 185 185 184 188 184 176 169 164 164 162 162 162 153 152 163 152 145 167 183 219 209 189 171 162 163 158 155 142 125 116 114 121 79 57 65 56 69 108 324 334 342 344
188 190 187 175 175 173 172 166 167 173 168 165 164 163 164 162 158 168 173 187 210 239 194 172 171 175 176 184 184 169 158 157 146 145 147 144 139 148 139 251 310 317 314
190 189 187 184 184 182 179 173 175 182 177 171 173 176 175 172 177 180 184 183 189 206 203 177 180 186 195 199 190 186 191 185 184 190 196 198 206 184 171 185 255 295 306
191 195 194 192 192 191 184 180 185 187 180 180 184 180 177 175 184 186 182 187 194 204 196 189 194 204 205 204 194 201 212 202 209 214 205 211 220 201 193 187 184 277 302
195 199 196 194 194 193 191 188 188 188 186 186 181 181 182 184 188 186 182 187 198 202 196 197 203 211 211 209 198 213 226 213 223 228 223 223 226 213 214 206 193 194 257
199 201 198 199 200 199 194 186 188 192 188 183 184 189 189 191 186 178 188 198 203 202 191 202 209 216 220 215 208 224 228 225 233 225 228 234 234 227 217 212 211 209 214
202 203 202 200 197 192 186 187 189 188 184 186 187 186 188 189 184 191 200 200 201 201 203 209 213 222 229 224 217 233 237 239 247 238 230 242 235 234 231 217 214 214 209
206 202 198 190 189 191 190 191 191 191 192 186 184 190 188 184 190 203 208 201 205 207 208 209 216 226 230 225 223 237 239 237 248 248 239 248 240 236 235 226 227 225 217
206 199 192 193 197 196 193 193 193 195 188 178 183 189 190 191 199 207 207 203 206 209 210 208 218 227 231 230 229 231 239 240 244 245 241 247 239 245 241 234 237 238 233
208 202 202 204 201 197 194 193 195 191 182 179 185 195 200 200 203 204 204 206 207 208 212 215 221 227 230 232 235 233 237 242 244 242 240 242 236 241 243 241 240 240 241
218 211 209 207 200 197 196 195 194 188 182 182 192 204 203 199 200 204 207 209 210 215 216 218 226 229 229 232 229 231 235 240 247 247 243 243 242 241 238 237 237 233 238
228 216 210 204 200 199 198 194 195 189 180 189 201 202 194 196 204 209 209 210 215 217 215 220 226 229 232 233 229 224 231 236 240 248 251 251 254 254 252 248 244 230 231
266 233 211 209 207 201 194 195 196 177 181 197 201 195 195 204 210 211 210 215 218 216 220 226 227 234 238 237 238 234 228 234 238 241 248 253 250 243 248 256 260 252 240
335 283 230 222 216 193 185 181 160 168 187 200 206 201 199 210 210 207 216 220 215 215 223 229 229 235 243 239 238 238 233 237 241 240 240 243 251 246 237 247 256 258 254
341 327 359 79 96 138 155 139 151 167 187 206 212 208 203 208 207 212 220 218 214 221 222 226 226 232 244 240 237 233 231 238 245 244 239 237 245 246 233 235 249 261 264
24 26 39 49 50 56 106 122 149 169 208 220 221 209 199 206 214 219 221 216 216 228 229 235 233 233 243 243 237 227 225 238 247 247 242 235 235 240 231 227 235 248 257
39 45 51 49 39 49 92 97 96 208 232 206 190 191 200 210 218 222 222 220 223 232 235 243 244 239 242 247 242 230 221 232 241 245 245 239 229 232 233 225 228 236 243
40 48 53 45 31 32 62 68 29 338 42 88 127 209 217 229 225 220 233 230 229 239 248 251 258 253 247 245 247 237 227 227 234 241 243 239 231 228 230 227 229 235 239
45 49 59 53 37 28 46 54 4 7 37 48 38 19 15 322 281 237 244 249 237 244 254 254 261 265 257 250 245 245 241 232 231 242 240 237 233 230 233 233 231 230 229
48 50 57 53 37 25 35 38 20 31 53 49 32 29 27 1 334 306 272 257 254 255 260 261 264 269 270 266 259 252 250 243 236 242 246 242 237 232 236 237 232 225 222
56 60 67 62 41 27 28 22 22 45 56 48 35 25 16 351 334 319 284 269 256 251 258 264 263 270 275 270 265 263 261 252 244 236 235 232 227 227 229 231 232 228 222
63 63 60 54 35 27 23 14 15 38 50 36 19 7 354 343 335 327 319 291 275 285 277 266 264 267 263 274 278 274 266 259 249 226 234 235 231 230 231 230 232 228 227